SXS4KQ LTAI-LUKK

Flight info

Callsign SXS4KQ
Flight time N/A
Altitude 36000
Route EKNUD UT337 OSVEL UL619 MAKOL DCT GLT DCT KODRU T34 LIPTA
Aircraft B738/M-SDE2E3FGHIRWXY/LB1

Departure

Time N/A
Airport Antalya International Airport (LTAI)

Arrival

Time 2026-05-05 10:54
Airport Chişinău International Airport (LUKK)
Time Latitude Longitude Altitude Speed Heading
2026-05-05 10:24 44.39683 28.32451 36063 ft 444 kts 346°
2026-05-05 10:24 44.42641 28.31321 36058 ft 444 kts 346°
2026-05-05 10:24 44.48620 28.29033 36058 ft 444 kts 346°
2026-05-05 10:25 44.54547 28.26760 36055 ft 444 kts 346°
2026-05-05 10:25 44.60519 28.24465 36051 ft 444 kts 346°
2026-05-05 10:26 44.66493 28.22164 36053 ft 446 kts 346°
2026-05-05 10:26 44.72440 28.19868 36043 ft 446 kts 346°
2026-05-05 10:27 44.78407 28.17560 36044 ft 446 kts 346°
2026-05-05 10:27 44.84390 28.15242 36047 ft 446 kts 346°
2026-05-05 10:28 44.90367 28.12921 36043 ft 446 kts 346°
2026-05-05 10:28 44.96319 28.10603 36034 ft 447 kts 346°
2026-05-05 10:29 45.02312 28.08265 36036 ft 447 kts 346°
2026-05-05 10:29 45.08308 28.05920 36036 ft 447 kts 346°
2026-05-05 10:30 45.14275 28.03583 36030 ft 447 kts 346°
2026-05-05 10:30 45.20285 28.01223 36035 ft 447 kts 346°
2026-05-05 10:31 45.26234 27.98881 36031 ft 447 kts 346°
2026-05-05 10:31 45.32246 27.96511 36040 ft 447 kts 346°
2026-05-05 10:32 45.38209 27.94247 36029 ft 446 kts 349°
2026-05-05 10:32 45.44324 27.93478 36040 ft 443 kts
2026-05-05 10:33 45.50394 27.94624 35747 ft 436 kts 11°
2026-05-05 10:33 45.53361 27.95395 35270 ft 434 kts 12°
2026-05-05 10:33 45.56325 27.96200 34635 ft 436 kts 12°
2026-05-05 10:34 45.59318 27.97018 33856 ft 440 kts 12°
2026-05-05 10:34 45.62343 27.97861 33053 ft 453 kts 13°
2026-05-05 10:34 45.65485 27.98747 32198 ft 466 kts 12°
2026-05-05 10:34 45.68668 27.99623 31312 ft 475 kts 12°
2026-05-05 10:35 45.71905 28.00457 30370 ft 469 kts 11°
2026-05-05 10:35 45.75084 28.01248 29479 ft 461 kts 11°
2026-05-05 10:35 45.78224 28.02020 28841 ft 449 kts 11°
2026-05-05 10:35 45.81225 28.02757 28204 ft 439 kts 11°
2026-05-05 10:36 45.84229 28.03501 27545 ft 435 kts 11°
2026-05-05 10:36 45.87165 28.04232 26903 ft 424 kts 11°
2026-05-05 10:36 45.88086 28.04462 26700 ft 421 kts 11°
2026-05-05 10:36 45.90183 28.04986 26230 ft 413 kts 11°
2026-05-05 10:37 45.92970 28.05688 25610 ft 409 kts 12°
2026-05-05 10:37 45.95772 28.06397 24952 ft 406 kts 12°
2026-05-05 10:37 45.98508 28.07092 24318 ft 403 kts 12°
2026-05-05 10:37 46.01256 28.07790 23688 ft 400 kts 12°
2026-05-05 10:38 46.03970 28.08481 23061 ft 396 kts 12°
2026-05-05 10:38 46.06672 28.09170 22433 ft 392 kts 12°
2026-05-05 10:38 46.09325 28.09847 21815 ft 389 kts 12°
2026-05-05 10:38 46.11993 28.10529 21198 ft 385 kts 12°
2026-05-05 10:39 46.14605 28.11198 20591 ft 382 kts 12°
2026-05-05 10:39 46.17180 28.12024 19971 ft 378 kts 17°
2026-05-05 10:39 46.19622 28.13288 19371 ft 373 kts 26°
2026-05-05 10:39 46.21868 28.15063 18786 ft 368 kts 32°
2026-05-05 10:40 46.23995 28.17102 18170 ft 366 kts 35°
2026-05-05 10:40 46.26033 28.19213 17576 ft 362 kts 36°
2026-05-05 10:40 46.28068 28.21373 16988 ft 359 kts 36°
2026-05-05 10:40 46.30070 28.23501 16408 ft 356 kts 36°
2026-05-05 10:41 46.32030 28.25568 15827 ft 353 kts 36°
2026-05-05 10:41 46.34005 28.27635 15246 ft 350 kts 36°
2026-05-05 10:41 46.35965 28.29677 14663 ft 347 kts 36°
2026-05-05 10:41 46.37917 28.31704 14082 ft 344 kts 36°
2026-05-05 10:42 46.41753 28.35683 12959 ft 337 kts 36°
2026-05-05 10:42 46.43640 28.37643 12405 ft 335 kts 36°
2026-05-05 10:42 46.45522 28.39600 11854 ft 332 kts 36°
2026-05-05 10:43 46.47371 28.41525 11305 ft 329 kts 36°
2026-05-05 10:43 46.49232 28.43466 10850 ft 324 kts 36°
2026-05-05 10:43 46.51027 28.45339 10604 ft 312 kts 36°
2026-05-05 10:43 46.52756 28.47143 10489 ft 298 kts 36°
2026-05-05 10:44 46.54386 28.48848 10367 ft 285 kts 36°
2026-05-05 10:44 46.55971 28.50505 10233 ft 273 kts 36°
2026-05-05 10:44 46.57487 28.52091 10020 ft 266 kts 36°
2026-05-05 10:44 46.58981 28.53655 9674 ft 264 kts 36°
2026-05-05 10:45 46.60453 28.55186 9342 ft 262 kts 34°
2026-05-05 10:45 46.62055 28.56417 9013 ft 260 kts 18°
2026-05-05 10:45 46.63847 28.56603 8695 ft 262 kts 352°
2026-05-05 10:45 46.65562 28.55710 8368 ft 263 kts 338°
2026-05-05 10:46 46.67212 28.54603 8038 ft 261 kts 339°
2026-05-05 10:46 46.68857 28.53562 7710 ft 259 kts 340°
2026-05-05 10:46 46.70515 28.52545 7380 ft 257 kts 340°
2026-05-05 10:46 46.72154 28.51535 7055 ft 259 kts 339°
2026-05-05 10:47 46.73836 28.50573 6744 ft 256 kts 348°
2026-05-05 10:47 46.75568 28.50657 6454 ft 252 kts 21°
2026-05-05 10:47 46.77037 28.51978 6139 ft 251 kts 38°
2026-05-05 10:47 46.78445 28.53482 5831 ft 250 kts 32°
2026-05-05 10:48 46.79984 28.54684 5527 ft 250 kts 24°
2026-05-05 10:48 46.81554 28.55646 5390 ft 243 kts 22°
2026-05-05 10:48 46.83111 28.56541 5325 ft 236 kts 22°
2026-05-05 10:48 46.84618 28.57418 5247 ft 228 kts 22°
2026-05-05 10:49 46.86061 28.58274 5141 ft 221 kts 22°
2026-05-05 10:49 46.87463 28.59116 4892 ft 220 kts 22°
2026-05-05 10:49 46.88878 28.59986 4640 ft 218 kts 23°
2026-05-05 10:49 46.90257 28.60869 4397 ft 217 kts 27°
2026-05-05 10:50 46.91461 28.62139 4221 ft 216 kts 48°
2026-05-05 10:50 46.92152 28.64057 3986 ft 215 kts 75°
2026-05-05 10:50 46.92277 28.66225 3668 ft 215 kts 91°
2026-05-05 10:50 46.92255 28.68421 3360 ft 214 kts 89°
2026-05-05 10:51 46.92284 28.70579 3083 ft 212 kts 88°
2026-05-05 10:51 46.92332 28.72701 2773 ft 208 kts 88°
2026-05-05 10:51 46.92381 28.74784 2514 ft 201 kts 88°
2026-05-05 10:51 46.92423 28.76753 2254 ft 191 kts 88°
2026-05-05 10:52 46.92464 28.78641 1995 ft 177 kts 88°
2026-05-05 10:52 46.92503 28.80358 1794 ft 164 kts 88°
2026-05-05 10:52 46.92538 28.82023 1559 ft 161 kts 89°
2026-05-05 10:52 46.92570 28.83616 1350 ft 153 kts 88°
2026-05-05 10:53 46.92605 28.85160 1149 ft 153 kts 88°
2026-05-05 10:53 46.92655 28.86721 952 ft 153 kts 88°
2026-05-05 10:53 46.92677 28.88272 758 ft 152 kts 88°
2026-05-05 10:53 46.92712 28.89806 545 ft 151 kts 89°
2026-05-05 10:54 46.92743 28.91345 386 ft 149 kts 88°
2026-05-05 10:54 46.92770 28.92628 340 ft 90 kts 89°
2026-05-05 10:54 46.92780 28.93234 325 ft 32 kts 89°
2026-05-05 10:54 46.92786 28.93359 322 ft 5 kts 78°
2026-05-05 10:55 46.92850 28.93416 321 ft 18 kts 357°
2026-05-05 10:55 46.92977 28.93411 320 ft 18 kts
2026-05-05 10:55 46.93106 28.93432 320 ft 19 kts
2026-05-05 10:55 46.93143 28.93560 317 ft 12 kts 94°
2026-05-05 10:56 46.93201 28.93621 316 ft 12 kts 331°
2026-05-05 10:56 46.93222 28.93511 318 ft 10 kts 276°
2026-05-05 10:56 46.93279 28.93472 319 ft 15 kts
2026-05-05 10:56 46.93346 28.93532 317 ft 9 kts 38°
2026-05-05 10:57 46.93367 28.93541 317 ft 2 kts
2026-05-05 10:57 46.93371 28.93542 317 ft 0 kts